Time,TemperatureF,DewpointF,PressureIn,WindDirection,WindDirectionDegrees,WindSpeedMPH,WindSpeedGustMPH,Humidity,HourlyPrecipIn,Conditions,Clouds,dailyrainin,SolarRadiationWatts/m^2,SoftwareType,DateUTC
2013-11-12 00:03:00,44.0,26.0,-100.00,WSW,241,2.0,7.0,49,0.00,,,0.00,0.000000,,2013-11-12 05:03:00,
2013-11-12 00:13:00,44.0,26.0,-100.00,WSW,241,2.0,7.0,49,0.00,,,0.00,0.000000,,2013-11-12 05:13:00,
2013-11-12 00:24:00,44.0,26.0,-100.00,WSW,241,2.0,7.0,49,0.00,,,0.00,0.000000,,2013-11-12 05:24:00,
2013-11-12 00:54:00,45.0,27.0,-100.00,SSW,201,3.0,8.0,49,0.00,,,0.00,0.000000,,2013-11-12 05:54:00,
2013-11-12 01:03:00,45.0,27.0,-100.00,SSW,201,3.0,8.0,49,0.00,,,0.00,0.000000,,2013-11-12 06:03:00,
2013-11-12 01:13:00,45.0,27.0,-100.00,SSW,201,3.0,8.0,49,0.00,,,0.00,0.000000,,2013-11-12 06:13:00,
2013-11-12 01:22:00,45.0,27.0,-100.00,SSW,201,3.0,8.0,49,0.00,,,0.00,0.000000,,2013-11-12 06:22:00,
2013-11-12 01:52:00,45.0,27.0,-100.00,WSW,238,3.0,10.0,50,0.00,,,0.00,0.000000,,2013-11-12 06:52:00,
2013-11-12 02:02:00,45.0,27.0,-100.00,WSW,238,3.0,10.0,50,0.00,,,0.00,0.000000,,2013-11-12 07:02:00,
2013-11-12 02:11:00,45.0,27.0,-100.00,WSW,238,3.0,10.0,50,0.00,,,0.00,0.000000,,2013-11-12 07:11:00,
2013-11-12 02:22:00,45.0,27.0,-100.00,WSW,238,3.0,10.0,50,0.00,,,0.00,0.000000,,2013-11-12 07:22:00,
2013-11-12 02:52:00,46.0,28.0,-100.00,NW,313,4.0,11.0,49,0.00,,,0.00,0.000000,,2013-11-12 07:52:00,
2013-11-12 03:02:00,46.0,28.0,-100.00,NW,313,4.0,11.0,49,0.00,,,0.00,0.000000,,2013-11-12 08:02:00,
2013-11-12 03:11:00,46.0,28.0,-100.00,NW,313,4.0,11.0,49,0.00,,,0.00,0.000000,,2013-11-12 08:11:00,
2013-11-12 03:22:00,46.0,28.0,-100.00,NW,313,4.0,11.0,49,0.00,,,0.00,0.000000,,2013-11-12 08:22:00,
2013-11-12 03:52:00,46.0,28.0,-100.00,WSW,251,4.0,10.0,50,0.00,,,0.00,0.000000,,2013-11-12 08:52:00,
2013-11-12 04:02:00,46.0,28.0,-100.00,WSW,251,4.0,10.0,50,0.00,,,0.00,0.000000,,2013-11-12 09:02:00,
2013-11-12 04:12:00,46.0,28.0,-100.00,WSW,251,4.0,10.0,50,0.00,,,0.00,0.000000,,2013-11-12 09:12:00,
2013-11-12 04:22:00,46.0,28.0,-100.00,WSW,251,4.0,10.0,50,0.00,,,0.00,0.000000,,2013-11-12 09:22:00,
2013-11-12 04:54:00,46.0,29.0,-100.00,West,267,5.0,11.0,52,0.00,,,0.00,0.000000,,2013-11-12 09:54:00,
2013-11-12 05:03:00,46.0,29.0,-100.00,West,267,5.0,11.0,52,0.00,,,0.00,0.000000,,2013-11-12 10:03:00,
2013-11-12 05:13:00,46.0,29.0,-100.00,West,267,5.0,11.0,52,0.00,,,0.00,0.000000,,2013-11-12 10:13:00,
2013-11-12 05:23:00,46.0,29.0,-100.00,West,267,5.0,11.0,52,0.00,,,0.00,0.000000,,2013-11-12 10:23:00,
2013-11-12 05:53:00,40.0,28.0,-100.00,North,2,3.0,19.0,61,0.00,,,0.00,0.000000,,2013-11-12 10:53:00,
2013-11-12 06:02:00,40.0,28.0,-100.00,North,2,3.0,19.0,61,0.00,,,0.00,0.000000,,2013-11-12 11:02:00,
2013-11-12 06:12:00,40.0,28.0,-100.00,North,2,3.0,19.0,61,0.00,,,0.00,0.000000,,2013-11-12 11:12:00,
2013-11-12 06:22:00,40.0,28.0,-100.00,North,2,3.0,19.0,61,0.00,,,0.00,0.000000,,2013-11-12 11:22:00,
2013-11-12 07:52:00,37.0,22.0,-100.00,NW,305,5.0,14.0,55,-99.99,,,0.00,5.000000,,2013-11-12 12:52:00,
2013-11-12 08:02:00,37.0,22.0,-100.00,NW,305,5.0,14.0,55,-99.99,,,0.00,5.000000,,2013-11-12 13:02:00,
2013-11-12 08:11:00,37.0,22.0,-100.00,NW,305,5.0,14.0,55,-99.99,,,0.00,5.000000,,2013-11-12 13:11:00,
2013-11-12 08:22:00,37.0,22.0,-100.00,NW,305,5.0,14.0,55,-99.99,,,0.00,5.000000,,2013-11-12 13:22:00,
2013-11-12 08:52:00,36.0,19.0,-100.00,NW,313,5.0,18.0,49,0.00,,,-99.99,23.000000,,2013-11-12 13:52:00,
2013-11-12 09:02:00,36.0,19.0,-100.00,NW,313,5.0,18.0,49,0.00,,,-99.99,23.000000,,2013-11-12 14:02:00,
2013-11-12 09:12:00,36.0,19.0,-100.00,NW,313,5.0,18.0,49,0.00,,,-99.99,23.000000,,2013-11-12 14:12:00,
2013-11-12 09:22:00,36.0,19.0,-100.00,NW,313,5.0,18.0,49,0.00,,,-99.99,23.000000,,2013-11-12 14:22:00,
2013-11-12 09:53:00,35.0,16.0,-100.00,NW,313,5.0,13.0,45,0.00,,,0.00,50.000000,,2013-11-12 14:53:00,
2013-11-12 10:02:00,35.0,16.0,-100.00,NW,313,5.0,13.0,45,0.00,,,0.00,50.000000,,2013-11-12 15:02:00,
2013-11-12 10:11:00,35.0,16.0,-100.00,NW,313,5.0,13.0,45,0.00,,,0.00,50.000000,,2013-11-12 15:11:00,
2013-11-12 10:22:00,35.0,16.0,-100.00,NW,313,5.0,13.0,45,0.00,,,0.00,50.000000,,2013-11-12 15:22:00,
2013-11-12 10:53:00,34.0,16.0,-100.00,North,2,5.0,14.0,47,0.00,,,0.00,76.000000,,2013-11-12 15:53:00,
2013-11-12 11:04:00,34.0,16.0,-100.00,North,2,5.0,14.0,47,0.00,,,0.00,76.000000,,2013-11-12 16:04:00,
2013-11-12 11:13:00,34.0,16.0,-100.00,North,2,5.0,14.0,47,0.00,,,0.00,76.000000,,2013-11-12 16:13:00,
2013-11-12 11:23:00,34.0,16.0,-100.00,North,2,5.0,14.0,47,0.00,,,0.00,76.000000,,2013-11-12 16:23:00,
2013-11-12 11:53:00,33.0,14.0,-100.00,North,3,6.0,16.0,46,0.00,,,0.00,87.000000,,2013-11-12 16:53:00,
2013-11-12 12:02:00,33.0,14.0,-100.00,North,3,6.0,16.0,46,0.00,,,0.00,87.000000,,2013-11-12 17:02:00,
2013-11-12 12:12:00,33.0,14.0,-100.00,North,3,6.0,16.0,46,0.00,,,0.00,87.000000,,2013-11-12 17:12:00,
2013-11-12 12:23:00,33.0,14.0,-100.00,North,3,6.0,16.0,46,0.00,,,0.00,87.000000,,2013-11-12 17:23:00,
2013-11-12 12:52:00,33.0,14.0,-100.00,North,4,7.0,16.0,45,0.00,,,0.00,108.000000,,2013-11-12 17:52:00,
2013-11-12 13:02:00,33.0,14.0,-100.00,North,4,7.0,16.0,45,0.00,,,0.00,108.000000,,2013-11-12 18:02:00,
2013-11-12 13:12:00,33.0,14.0,-100.00,North,4,7.0,16.0,45,0.00,,,0.00,108.000000,,2013-11-12 18:12:00,
2013-11-12 13:23:00,33.0,14.0,-100.00,North,4,7.0,16.0,45,0.00,,,0.00,108.000000,,2013-11-12 18:23:00,
2013-11-12 13:52:00,33.0,14.0,-100.00,NW,318,5.0,18.0,45,0.00,,,0.00,134.000000,,2013-11-12 18:52:00,
2013-11-12 14:02:00,33.0,14.0,-100.00,NW,318,5.0,18.0,45,0.00,,,0.00,134.000000,,2013-11-12 19:02:00,
2013-11-12 14:11:00,33.0,14.0,-100.00,NW,318,5.0,18.0,45,0.00,,,0.00,134.000000,,2013-11-12 19:11:00,
2013-11-12 14:22:00,33.0,14.0,-100.00,NW,318,5.0,18.0,45,0.00,,,0.00,134.000000,,2013-11-12 19:22:00,
2013-11-12 14:52:00,32.0,13.0,-100.00,North,3,6.0,17.0,45,0.00,,,0.00,111.000000,,2013-11-12 19:52:00,
2013-11-12 15:02:00,32.0,13.0,-100.00,North,3,6.0,17.0,45,0.00,,,0.00,111.000000,,2013-11-12 20:02:00,
2013-11-12 15:11:00,32.0,13.0,-100.00,North,3,6.0,17.0,45,0.00,,,0.00,111.000000,,2013-11-12 20:11:00,
2013-11-12 15:22:00,32.0,13.0,-100.00,North,3,6.0,17.0,45,0.00,,,0.00,111.000000,,2013-11-12 20:22:00,
2013-11-12 15:52:00,33.0,14.0,-100.00,North,5,6.0,20.0,45,0.00,,,0.00,77.000000,,2013-11-12 20:52:00,
2013-11-12 16:02:00,33.0,14.0,-100.00,North,5,6.0,20.0,45,0.00,,,0.00,77.000000,,2013-11-12 21:02:00,
2013-11-12 16:12:00,33.0,14.0,-100.00,North,5,6.0,20.0,45,0.00,,,0.00,77.000000,,2013-11-12 21:12:00,
2013-11-12 16:22:00,33.0,14.0,-100.00,North,5,6.0,20.0,45,0.00,,,0.00,77.000000,,2013-11-12 21:22:00,
2013-11-12 16:54:00,32.0,14.0,-100.00,North,5,6.0,16.0,47,0.00,,,0.00,26.000000,,2013-11-12 21:54:00,
2013-11-12 17:04:00,32.0,14.0,-100.00,North,5,6.0,16.0,47,0.00,,,0.00,26.000000,,2013-11-12 22:04:00,
2013-11-12 17:14:00,32.0,14.0,-100.00,North,5,6.0,16.0,47,0.00,,,0.00,26.000000,,2013-11-12 22:14:00,
2013-11-12 17:24:00,32.0,14.0,-100.00,North,5,6.0,16.0,47,0.00,,,0.00,26.000000,,2013-11-12 22:24:00,
2013-11-12 17:54:00,31.0,15.0,-100.00,North,351,5.0,16.0,50,0.00,,,0.00,1.000000,,2013-11-12 22:54:00,
2013-11-12 18:03:00,31.0,15.0,-100.00,North,351,5.0,16.0,50,0.00,,,0.00,1.000000,,2013-11-12 23:03:00,
2013-11-12 18:12:00,31.0,15.0,-100.00,North,351,5.0,16.0,50,0.00,,,0.00,1.000000,,2013-11-12 23:12:00,
2013-11-12 18:23:00,31.0,15.0,-100.00,North,351,5.0,16.0,50,0.00,,,0.00,1.000000,,2013-11-12 23:23:00,
2013-11-12 18:54:00,30.0,14.0,-100.00,NNW,332,7.0,16.0,51,0.00,,,0.00,0.000000,,2013-11-12 23:54:00,
2013-11-12 19:02:00,30.0,14.0,-100.00,NNW,332,7.0,16.0,51,0.00,,,0.00,0.000000,,2013-11-13 00:02:00,
2013-11-12 19:11:00,30.0,14.0,-100.00,NNW,332,7.0,16.0,51,0.00,,,0.00,0.000000,,2013-11-13 00:11:00,
2013-11-12 19:22:00,30.0,14.0,-100.00,NNW,332,7.0,16.0,51,0.00,,,0.00,0.000000,,2013-11-13 00:22:00,
2013-11-12 19:52:00,30.0,13.0,-100.00,NW,313,5.0,16.0,49,0.00,,,0.00,0.000000,,2013-11-13 00:52:00,
2013-11-12 20:02:00,30.0,13.0,-100.00,NW,313,5.0,16.0,49,0.00,,,0.00,0.000000,,2013-11-13 01:02:00,
2013-11-12 20:12:00,30.0,13.0,-100.00,NW,313,5.0,16.0,49,0.00,,,0.00,0.000000,,2013-11-13 01:12:00,
2013-11-12 20:22:00,30.0,13.0,-100.00,NW,313,5.0,16.0,49,0.00,,,0.00,0.000000,,2013-11-13 01:22:00,
2013-11-12 20:52:00,27.0,13.0,-100.00,West,275,4.0,14.0,54,0.00,,,0.00,0.000000,,2013-11-13 01:52:00,
2013-11-12 21:02:00,27.0,13.0,-100.00,West,275,4.0,14.0,54,0.00,,,0.00,0.000000,,2013-11-13 02:02:00,
2013-11-12 21:11:00,27.0,13.0,-100.00,West,275,4.0,14.0,54,0.00,,,0.00,0.000000,,2013-11-13 02:11:00,
2013-11-12 21:22:00,27.0,13.0,-100.00,West,275,4.0,14.0,54,0.00,,,0.00,0.000000,,2013-11-13 02:22:00,
2013-11-12 21:52:00,26.0,14.0,-100.00,WSW,248,1.0,8.0,60,0.00,,,0.00,0.000000,,2013-11-13 02:52:00,
2013-11-12 22:02:00,26.0,14.0,-100.00,WSW,248,1.0,8.0,60,0.00,,,0.00,0.000000,,2013-11-13 03:02:00,
2013-11-12 22:12:00,26.0,14.0,-100.00,WSW,248,1.0,8.0,60,0.00,,,0.00,0.000000,,2013-11-13 03:12:00,
2013-11-12 22:22:00,26.0,14.0,-100.00,WSW,248,1.0,8.0,60,0.00,,,0.00,0.000000,,2013-11-13 03:22:00,
2013-11-12 22:54:00,24.0,14.0,-100.00,NW,312,2.0,5.0,64,0.00,,,0.00,0.000000,,2013-11-13 03:54:00,
2013-11-12 23:04:00,24.0,14.0,-100.00,NW,312,2.0,5.0,64,0.00,,,0.00,0.000000,,2013-11-13 04:04:00,
2013-11-12 23:14:00,24.0,14.0,-100.00,NW,312,2.0,5.0,64,0.00,,,0.00,0.000000,,2013-11-13 04:14:00,
2013-11-12 23:23:00,24.0,14.0,-100.00,NW,312,2.0,5.0,64,0.00,,,0.00,0.000000,,2013-11-13 04:23:00,
2013-11-12 23:53:00,25.0,13.0,-100.00,NW,310,2.0,8.0,61,0.00,,,0.00,0.000000,,2013-11-13 04:53:00,